Terre Haute, IN

2:49 AM EST on December 10, 2019 (GMT -0500)
Terre Haute International-Hulman

Weather History for KHUF - October, 2019

Change the Weather History Date:

Wednesday, October 16, 2019

  Actual Average Record
Temperature  
Mean Temperature 50 °F 54 °F  
Max Temperature 56 °F 66 °F 85 °F (1962)
Min Temperature 44 °F 42 °F 26 °F (1991)
Degree Days  
Heating Degree Days 15 11  
Month to date heating degree days 114 145  
Since 1 July heating degree days 116 223  
Cooling Degree Days 0 0  
Month to date cooling degree days 34 12  
Year to date cooling degree days 1298 990  
Moisture  
Dew Point 38 °F    
Average Humidity 69    
Maximum Humidity 83    
Minimum Humidity 54    
Precipitation  
Precipitation 0.00 in 0.12 in 1.39 in (2006)
Month to date precipitation 1.92 1.83  
Year to date precipitation 39.85 36.53  
Sea Level Pressure  
Sea Level Pressure 29.97 in    
Wind  
Wind Speed 10 mph (NW)    
Max Wind Speed 20 mph    
Max Gust Speed 28 mph    
Visibility 10 miles    
Events      
T = Trace of Precipitation, MM = Missing Value Source: NWS Daily Summary

Daily Weather History Graph

Daily Weather History Graph

Search for Another Location

Airport or City:

Astronomy

Oct. 16, 2019 Rise Set
Actual Time 7:59 AM EDT 7:09 PM EDT
Civil Twilight 7:32 AM EDT 7:36 PM EDT
Nautical Twilight 7:01 AM EDT 8:07 PM EDT
Astronomical Twilight 6:30 AM EDT 8:38 PM EDT
Moon 9:02 PM EDT (10/16) 10:29 AM EDT (10/16)
Length of Visible Light 12h 03m
Length of Day
11h 09m
Waning Gibbous, 93% of the Moon is Illuminated
Oct 16
Waning Gibbous
Oct 21
Last Quarter
Oct 27
New
Nov 4
First Quarter
Nov 12
Full

Hourly Weather History & Observations

Time (EDT) Temp. Windchill Dew Point Humidity Pressure Visibility Wind Dir Wind Speed Gust Speed Precip Events Conditions
12:53 AM 55.9 °F - 41.0 °F 57% 29.85 in 10.0 mi NNW 16.1 mph 24.2 mph 0.00 in   Overcast
1:53 AM 54.0 °F - 41.0 °F 62% 29.87 in 10.0 mi NNW 12.7 mph 23.0 mph N/A   Overcast
2:53 AM 51.1 °F - 41.0 °F 68% 29.88 in 10.0 mi NNW 12.7 mph 19.6 mph N/A   Clear
3:53 AM 48.9 °F - 41.0 °F 74% 29.88 in 10.0 mi NW 8.1 mph - N/A   Clear
4:53 AM 46.9 °F - 39.9 °F 77% 29.89 in 10.0 mi WNW 8.1 mph 21.9 mph N/A   Clear
5:53 AM 45.0 °F 40.6 °F 39.0 °F 80% 29.89 in 10.0 mi WNW 8.1 mph - N/A   Clear
6:53 AM 45.0 °F 39.7 °F 37.9 °F 76% 29.90 in 10.0 mi WNW 10.4 mph 24.2 mph N/A   Clear
7:53 AM 44.1 °F 39.5 °F 37.9 °F 79% 29.92 in 10.0 mi WNW 8.1 mph 18.4 mph N/A   Mostly Cloudy
8:27 AM 44.1 °F 38.1 °F 37.9 °F 79% 29.92 in 10.0 mi WNW 11.5 mph 19.6 mph N/A   Mostly Cloudy
8:53 AM 44.1 °F 38.6 °F 37.9 °F 79% 29.93 in 10.0 mi WNW 10.4 mph 20.7 mph N/A   Overcast
9:53 AM 46.0 °F 41.0 °F 37.9 °F 73% 29.95 in 10.0 mi WNW 10.4 mph - N/A   Overcast
10:53 AM 46.9 °F - 37.9 °F 71% 29.96 in 10.0 mi WNW 13.8 mph 23.0 mph N/A   Overcast
11:26 AM 48.0 °F - 37.9 °F 68% 29.97 in 10.0 mi NW 13.8 mph 23.0 mph N/A   Overcast
11:53 AM 48.9 °F - 39.0 °F 69% 29.97 in 10.0 mi NW 10.4 mph 23.0 mph N/A   Overcast
12:38 PM 50.0 °F - 39.0 °F 66% 29.98 in 10.0 mi WNW 10.4 mph 20.7 mph N/A   Overcast
12:53 PM 52.0 °F - 37.9 °F 59% 29.98 in 10.0 mi NNW 10.4 mph 20.7 mph N/A   Overcast
1:53 PM 52.0 °F - 37.0 °F 57% 29.99 in 10.0 mi NW 15.0 mph 23.0 mph N/A   Overcast
2:53 PM 53.1 °F - 37.0 °F 55% 29.98 in 10.0 mi NNW 16.1 mph 26.5 mph N/A   Overcast
3:53 PM 52.0 °F - 37.0 °F 57% 30.00 in 10.0 mi WNW 13.8 mph 21.9 mph N/A   Overcast
4:53 PM 52.0 °F - 37.0 °F 57% 30.01 in 10.0 mi WNW 10.4 mph 21.9 mph N/A   Overcast
5:53 PM 51.1 °F - 36.0 °F 56% 30.03 in 10.0 mi NW 12.7 mph 21.9 mph N/A   Overcast
6:53 PM 50.0 °F - 36.0 °F 59% 30.03 in 10.0 mi NW 5.8 mph - N/A   Overcast
7:53 PM 48.9 °F - 37.0 °F 64% 30.05 in 10.0 mi WNW 3.5 mph - N/A   Overcast
8:53 PM 48.9 °F - 36.0 °F 61% 30.06 in 10.0 mi NW 4.6 mph - N/A   Overcast
9:53 PM 48.9 °F - 36.0 °F 61% 30.06 in 10.0 mi West 5.8 mph - N/A   Overcast
10:53 PM 48.0 °F - 37.0 °F 66% 30.07 in 10.0 mi West 9.2 mph - N/A   Overcast
11:53 PM 46.0 °F 43.1 °F 37.0 °F 71% 30.06 in 10.0 mi WNW 5.8 mph - N/A   Mostly Cloudy